Location: Gönnheim
(49.4488°N, 8.2383°E)
Time: 09:25:30
(UTC+00:00)

Cosmos 1570 Rocket - Pass Details

Date: 19 May 2025
Orbit: 759 x 785 km, 74.1° (Epoch: 23 June)

Event Time Altitude Azimuth Distance (km) Brightness Sun altitude
Exits shadow 21:19:38 - 210° (SSW) 3,149 6.9 -15.3°
Reaches altitude 10° 21:21:50 10° 213° (SSW) 2,298 6.2 -15.5°
Maximum altitude 21:27:02 67° 296° (WNW) 838 4.4 -15.9°
Drops below altitude 10° 21:32:18 10° 19° (NNE) 2,331 7.1 -16.3°
Sets 21:34:44 0° 23° (NNE) 3,267 7.9 -16.5°
